Time,TemperatureF,DewpointF,PressureIn,WindDirection,WindDirectionDegrees,WindSpeedMPH,WindSpeedGustMPH,Humidity,HourlyPrecipIn,Conditions,Clouds,dailyrainin,SoftwareType,DateUTC
2013-06-09 00:02:00,67.5,56.1,-100.00,ESE,104,0.0,2.0,67,0.00,,,0.00,meteohub,2013-06-09 05:02:00,
2013-06-09 00:07:00,67.5,56.1,-100.00,ESE,105,0.0,2.0,67,0.00,,,0.00,meteohub,2013-06-09 05:07:00,
2013-06-09 00:12:00,67.5,56.1,-100.00,ESE,105,0.0,1.0,67,0.00,,,0.00,meteohub,2013-06-09 05:12:00,
2013-06-09 00:17:00,67.5,56.1,-100.00,ESE,105,0.0,1.0,67,0.00,,,0.00,meteohub,2013-06-09 05:17:00,
2013-06-09 00:22:00,67.3,56.3,-100.00,ESE,106,0.0,2.0,68,0.00,,,0.00,meteohub,2013-06-09 05:22:00,
2013-06-09 00:27:00,67.3,56.3,-100.00,ESE,111,1.0,2.0,68,0.00,,,0.00,meteohub,2013-06-09 05:27:00,
2013-06-09 00:32:00,66.9,56.5,-100.00,ESE,114,0.0,2.0,69,0.00,,,0.00,meteohub,2013-06-09 05:32:00,
2013-06-09 00:37:00,66.9,56.5,-100.00,ESE,117,0.0,2.0,69,0.00,,,0.00,meteohub,2013-06-09 05:37:00,
2013-06-09 00:42:00,66.7,56.3,-100.00,SE,126,0.0,1.0,69,0.00,,,0.00,meteohub,2013-06-09 05:42:00,
2013-06-09 00:47:00,66.7,56.3,-100.00,SE,125,0.0,3.0,69,0.00,,,0.00,meteohub,2013-06-09 05:47:00,
2013-06-09 00:52:00,66.7,56.3,-100.00,SE,124,0.0,3.0,69,0.00,,,0.00,meteohub,2013-06-09 05:52:00,
2013-06-09 00:57:00,66.6,56.5,-100.00,SE,124,0.0,2.0,70,0.00,,,0.00,meteohub,2013-06-09 05:57:00,
2013-06-09 01:02:00,66.4,56.3,-100.00,ESE,123,0.0,2.0,70,0.00,,,0.00,meteohub,2013-06-09 06:02:00,
2013-06-09 01:07:00,66.2,56.1,-100.00,ESE,123,0.0,1.0,70,0.00,,,0.00,meteohub,2013-06-09 06:07:00,
2013-06-09 01:12:00,66.0,56.3,-100.00,SE,126,0.0,1.0,71,0.00,,,0.00,meteohub,2013-06-09 06:12:00,
2013-06-09 01:17:00,66.0,56.3,-100.00,SE,132,0.0,2.0,71,0.00,,,0.00,meteohub,2013-06-09 06:17:00,
2013-06-09 01:22:00,66.0,56.3,-100.00,ESE,122,0.0,3.0,71,0.00,,,0.00,meteohub,2013-06-09 06:22:00,
2013-06-09 01:27:00,66.2,56.1,-100.00,ESE,119,0.0,3.0,70,0.00,,,0.00,meteohub,2013-06-09 06:27:00,
2013-06-09 01:32:00,66.4,56.3,-100.00,ESE,123,0.0,5.0,70,0.00,,,0.00,meteohub,2013-06-09 06:32:00,
2013-06-09 01:37:00,66.4,56.3,-100.00,SE,125,0.0,5.0,70,0.00,,,0.00,meteohub,2013-06-09 06:37:00,
2013-06-09 01:42:00,66.2,56.1,-100.00,SE,128,5.0,5.0,70,0.00,,,0.00,meteohub,2013-06-09 06:42:00,
2013-06-09 01:47:00,66.4,56.3,-100.00,ESE,113,3.0,7.0,70,0.00,,,0.00,meteohub,2013-06-09 06:47:00,
2013-06-09 01:52:00,66.6,56.5,-100.00,ESE,121,5.0,7.0,70,0.00,,,0.00,meteohub,2013-06-09 06:52:00,
2013-06-09 01:57:00,66.7,56.3,-100.00,SE,126,3.0,7.0,69,0.00,,,0.00,meteohub,2013-06-09 06:57:00,
2013-06-09 02:02:00,66.7,56.7,-100.00,ESE,123,4.0,9.0,70,0.00,,,0.00,meteohub,2013-06-09 07:02:00,
2013-06-09 02:07:00,66.7,56.7,-100.00,SE,125,0.0,9.0,70,0.00,,,0.00,meteohub,2013-06-09 07:07:00,
2013-06-09 02:12:00,66.6,56.5,-100.00,SE,129,0.0,9.0,70,0.00,,,0.00,meteohub,2013-06-09 07:12:00,
2013-06-09 02:17:00,66.6,56.8,-100.00,SE,126,4.0,5.0,71,0.00,,,0.00,meteohub,2013-06-09 07:17:00,
2013-06-09 02:22:00,66.4,56.7,-100.00,ESE,123,3.0,6.0,71,0.00,,,0.00,meteohub,2013-06-09 07:22:00,
2013-06-09 02:27:00,66.6,56.8,-100.00,SE,127,1.0,6.0,71,0.00,,,0.00,meteohub,2013-06-09 07:27:00,
2013-06-09 02:32:00,66.4,57.0,-100.00,ESE,115,2.0,6.0,72,0.00,,,0.00,meteohub,2013-06-09 07:32:00,
2013-06-09 02:38:00,66.4,57.0,-100.00,ESE,122,1.0,6.0,72,0.00,,,0.00,meteohub,2013-06-09 07:38:00,
2013-06-09 02:43:00,66.4,57.0,-100.00,SE,131,0.0,6.0,72,0.00,,,0.00,meteohub,2013-06-09 07:43:00,
2013-06-09 02:48:00,66.4,57.4,-100.00,ESE,123,0.0,6.0,73,0.00,,,0.00,meteohub,2013-06-09 07:48:00,
2013-06-09 02:53:00,66.4,57.4,-100.00,ESE,121,0.0,5.0,73,0.00,,,0.00,meteohub,2013-06-09 07:53:00,
2013-06-09 02:58:00,66.4,57.4,-100.00,ESE,122,5.0,5.0,73,0.00,,,0.00,meteohub,2013-06-09 07:58:00,
2013-06-09 03:03:00,66.4,57.9,-100.00,SE,124,2.0,6.0,74,0.00,,,0.00,meteohub,2013-06-09 08:03:00,
2013-06-09 03:08:00,66.4,57.9,-100.00,SE,131,4.0,7.0,74,0.00,,,0.00,meteohub,2013-06-09 08:08:00,
2013-06-09 03:13:00,66.6,58.1,-100.00,SE,125,3.0,7.0,74,0.00,,,0.00,meteohub,2013-06-09 08:13:00,
2013-06-09 03:18:00,66.6,58.1,-100.00,ESE,103,0.0,5.0,74,0.00,,,0.00,meteohub,2013-06-09 08:18:00,
2013-06-09 03:23:00,66.7,58.1,-100.00,SE,125,1.0,6.0,74,0.00,,,0.00,meteohub,2013-06-09 08:23:00,
2013-06-09 03:28:00,66.7,58.1,-100.00,ESE,119,3.0,6.0,74,0.00,,,0.00,meteohub,2013-06-09 08:28:00,
2013-06-09 03:33:00,66.7,58.1,-100.00,ESE,114,0.0,7.0,74,0.00,,,0.00,meteohub,2013-06-09 08:33:00,
2013-06-09 03:38:00,66.9,58.3,-100.00,ESE,121,4.0,9.0,74,0.00,,,0.00,meteohub,2013-06-09 08:38:00,
2013-06-09 03:43:00,67.1,58.1,-100.00,SE,130,1.0,9.0,73,0.00,,,0.00,meteohub,2013-06-09 08:43:00,
2013-06-09 03:48:00,67.3,58.3,-100.00,ESE,115,0.0,9.0,73,0.00,,,0.00,meteohub,2013-06-09 08:48:00,
2013-06-09 03:53:00,67.3,58.3,-100.00,SE,125,0.0,8.0,73,0.00,,,0.00,meteohub,2013-06-09 08:53:00,
2013-06-09 03:58:00,67.3,58.3,-100.00,ESE,119,2.0,9.0,73,0.00,,,0.00,meteohub,2013-06-09 08:58:00,
2013-06-09 04:03:00,67.5,58.5,-100.00,ESE,123,0.0,9.0,73,0.00,,,0.00,meteohub,2013-06-09 09:03:00,
2013-06-09 04:08:00,67.3,58.3,-100.00,ESE,117,0.0,9.0,73,0.00,,,0.00,meteohub,2013-06-09 09:08:00,
2013-06-09 04:13:00,67.5,58.5,-100.00,SE,129,3.0,9.0,73,0.00,,,0.00,meteohub,2013-06-09 09:13:00,
2013-06-09 04:18:00,67.5,58.5,-100.00,ESE,113,0.0,9.0,73,0.00,,,0.00,meteohub,2013-06-09 09:18:00,
2013-06-09 04:23:00,67.5,58.5,-100.00,ESE,119,3.0,11.0,73,0.00,,,0.00,meteohub,2013-06-09 09:23:00,
2013-06-09 04:28:00,67.3,58.6,-100.00,ESE,110,0.0,11.0,74,0.00,,,0.00,meteohub,2013-06-09 09:28:00,
2013-06-09 04:33:00,67.1,58.5,-100.00,ESE,121,0.0,11.0,74,0.00,,,0.00,meteohub,2013-06-09 09:33:00,
2013-06-09 04:38:00,66.9,58.3,-100.00,SE,128,3.0,7.0,74,0.00,,,0.00,meteohub,2013-06-09 09:38:00,
2013-06-09 04:43:00,66.9,58.3,-100.00,ESE,123,0.0,5.0,74,0.00,,,0.00,meteohub,2013-06-09 09:43:00,
2013-06-09 04:48:00,66.9,58.8,-100.00,SE,132,0.0,5.0,75,0.00,,,0.00,meteohub,2013-06-09 09:48:00,
2013-06-09 04:53:00,66.9,58.8,-100.00,SE,125,0.0,5.0,75,0.00,,,0.00,meteohub,2013-06-09 09:53:00,
2013-06-09 04:58:00,67.1,58.5,-100.00,ESE,123,4.0,4.0,74,0.00,,,0.00,meteohub,2013-06-09 09:58:00,
2013-06-09 05:03:00,67.3,58.6,-100.00,SSE,153,4.0,6.0,74,0.00,,,0.00,meteohub,2013-06-09 10:03:00,
2013-06-09 05:08:00,67.5,58.5,-100.00,ESE,115,0.0,10.0,73,0.00,,,0.00,meteohub,2013-06-09 10:08:00,
2013-06-09 05:13:00,67.6,58.6,-100.00,SE,126,4.0,10.0,73,0.00,,,0.00,meteohub,2013-06-09 10:13:00,
2013-06-09 05:18:00,67.6,58.6,-100.00,ESE,109,4.0,10.0,73,0.00,,,0.00,meteohub,2013-06-09 10:18:00,
2013-06-09 05:23:00,67.6,58.6,-100.00,South,175,0.0,7.0,73,0.00,,,0.00,meteohub,2013-06-09 10:23:00,
2013-06-09 05:28:00,68.0,58.6,-100.00,ESE,106,0.0,7.0,72,0.00,,,0.00,meteohub,2013-06-09 10:28:00,
2013-06-09 05:33:00,68.2,58.8,-100.00,SE,127,0.0,14.0,72,0.00,,,0.00,meteohub,2013-06-09 10:33:00,
2013-06-09 05:38:00,68.0,58.6,-100.00,ESE,113,1.0,14.0,72,0.00,,,0.00,meteohub,2013-06-09 10:38:00,
2013-06-09 05:43:00,67.8,58.5,-100.00,ESE,107,2.0,5.0,72,0.00,,,0.00,meteohub,2013-06-09 10:43:00,
2013-06-09 05:48:00,67.8,58.5,-100.00,SE,128,0.0,3.0,72,0.00,,,0.00,meteohub,2013-06-09 10:48:00,
2013-06-09 05:53:00,68.0,58.6,-100.00,ESE,118,0.0,5.0,72,0.00,,,0.00,meteohub,2013-06-09 10:53:00,
2013-06-09 05:58:00,68.2,58.8,-100.00,SE,141,0.0,5.0,72,0.00,,,0.00,meteohub,2013-06-09 10:58:00,
2013-06-09 06:03:00,68.2,58.8,-100.00,East,101,0.0,7.0,72,0.00,,,0.00,meteohub,2013-06-09 11:03:00,
2013-06-09 06:08:00,68.2,58.8,-100.00,ESE,122,3.0,7.0,72,0.00,,,0.00,meteohub,2013-06-09 11:08:00,
2013-06-09 06:13:00,68.2,58.8,-100.00,SE,136,0.0,8.0,72,0.00,,,0.00,meteohub,2013-06-09 11:13:00,
2013-06-09 06:18:00,68.0,58.6,-100.00,ESE,114,6.0,8.0,72,0.00,,,0.00,meteohub,2013-06-09 11:18:00,
2013-06-09 06:23:00,68.0,58.6,-100.00,East,84,0.0,8.0,72,0.00,,,0.00,meteohub,2013-06-09 11:23:00,
2013-06-09 06:28:00,68.0,58.6,-100.00,ESE,121,0.0,7.0,72,0.00,,,0.00,meteohub,2013-06-09 11:28:00,
2013-06-09 06:34:00,68.0,59.0,-100.00,ESE,120,0.0,7.0,73,0.00,,,0.00,meteohub,2013-06-09 11:34:00,
2013-06-09 06:39:00,68.0,59.0,-100.00,ESE,120,0.0,6.0,73,0.00,,,0.00,meteohub,2013-06-09 11:39:00,
2013-06-09 06:44:00,67.8,58.8,-100.00,ESE,119,0.0,6.0,73,0.00,,,0.00,meteohub,2013-06-09 11:44:00,
2013-06-09 06:49:00,67.8,58.8,-100.00,ESE,119,0.0,5.0,73,0.00,,,0.00,meteohub,2013-06-09 11:49:00,
2013-06-09 06:54:00,67.8,58.8,-100.00,ESE,114,0.0,5.0,73,0.00,,,0.00,meteohub,2013-06-09 11:54:00,
2013-06-09 06:59:00,67.6,59.0,-100.00,ESE,115,0.0,5.0,74,0.00,,,0.00,meteohub,2013-06-09 11:59:00,
2013-06-09 07:04:00,67.6,59.0,-100.00,ESE,119,0.0,2.0,74,0.00,,,0.00,meteohub,2013-06-09 12:04:00,
2013-06-09 07:09:00,67.6,59.0,-100.00,ESE,121,0.0,3.0,74,0.00,,,0.00,meteohub,2013-06-09 12:09:00,
2013-06-09 07:14:00,67.8,59.2,-100.00,SE,132,0.0,3.0,74,0.00,,,0.00,meteohub,2013-06-09 12:14:00,
2013-06-09 07:19:00,68.2,59.5,-100.00,SE,140,0.0,2.0,74,0.00,,,0.00,meteohub,2013-06-09 12:19:00,
2013-06-09 07:24:00,68.5,59.2,-100.00,South,179,9.0,9.0,72,0.00,,,0.00,meteohub,2013-06-09 12:24:00,
2013-06-09 07:29:00,69.1,59.4,-100.00,SSE,148,4.0,4.0,71,0.00,,,0.00,meteohub,2013-06-09 12:29:00,
2013-06-09 07:34:00,69.4,59.2,-100.00,ESE,117,2.0,12.0,70,0.00,,,0.00,meteohub,2013-06-09 12:34:00,
2013-06-09 07:39:00,69.4,59.2,-100.00,SE,130,0.0,12.0,70,0.00,,,0.00,meteohub,2013-06-09 12:39:00,
2013-06-09 07:44:00,69.4,59.2,-100.00,ESE,112,2.0,12.0,70,0.00,,,0.00,meteohub,2013-06-09 12:44:00,
2013-06-09 07:49:00,69.4,59.2,-100.00,South,182,9.0,9.0,70,0.00,,,0.00,meteohub,2013-06-09 12:49:00,
2013-06-09 07:54:00,69.4,59.2,-100.00,SSW,192,5.0,9.0,70,0.00,,,0.00,meteohub,2013-06-09 12:54:00,
2013-06-09 07:59:00,69.3,59.5,-100.00,SSW,205,0.0,10.0,71,0.00,,,0.00,meteohub,2013-06-09 12:59:00,
2013-06-09 08:04:00,69.1,59.4,-100.00,SSW,201,3.0,10.0,71,0.00,,,0.00,meteohub,2013-06-09 13:04:00,
2013-06-09 08:09:00,68.9,59.2,-100.00,South,184,0.0,10.0,71,0.00,,,0.00,meteohub,2013-06-09 13:09:00,
2013-06-09 08:14:00,68.7,59.4,-100.00,South,186,0.0,7.0,72,0.00,,,0.00,meteohub,2013-06-09 13:14:00,
2013-06-09 08:19:00,68.9,59.5,-100.00,SSW,203,0.0,10.0,72,0.00,,,0.00,meteohub,2013-06-09 13:19:00,
2013-06-09 08:24:00,68.9,59.5,-100.00,South,182,0.0,12.0,72,0.00,,,0.00,meteohub,2013-06-09 13:24:00,
2013-06-09 08:29:00,68.7,59.4,-100.00,South,190,4.0,12.0,72,0.00,,,0.00,meteohub,2013-06-09 13:29:00,
2013-06-09 08:34:00,68.7,59.4,-100.00,SSW,209,0.0,12.0,72,0.00,,,0.00,meteohub,2013-06-09 13:34:00,
2013-06-09 08:39:00,68.7,59.4,-100.00,South,189,1.0,10.0,72,0.00,,,0.00,meteohub,2013-06-09 13:39:00,
2013-06-09 08:44:00,69.1,59.7,-100.00,SW,216,3.0,11.0,72,0.00,,,0.00,meteohub,2013-06-09 13:44:00,
2013-06-09 08:49:00,69.3,59.9,-100.00,SSW,210,0.0,11.0,72,0.00,,,0.00,meteohub,2013-06-09 13:49:00,
2013-06-09 08:54:00,69.4,60.1,-100.00,SSW,192,2.0,13.0,72,0.00,,,0.00,meteohub,2013-06-09 13:54:00,
2013-06-09 08:59:00,69.6,60.3,-100.00,ESE,118,1.0,15.0,72,0.00,,,0.00,meteohub,2013-06-09 13:59:00,
2013-06-09 09:04:00,70.2,60.3,-100.00,SE,135,0.0,15.0,71,0.00,,,0.00,meteohub,2013-06-09 14:04:00,
2013-06-09 09:09:00,70.3,60.4,-100.00,South,189,0.0,15.0,71,0.00,,,0.00,meteohub,2013-06-09 14:09:00,
2013-06-09 09:14:00,70.3,60.4,-100.00,ESE,117,3.0,11.0,71,0.00,,,0.00,meteohub,2013-06-09 14:14:00,
2013-06-09 09:19:00,70.5,60.3,-100.00,SE,140,1.0,11.0,70,0.00,,,0.00,meteohub,2013-06-09 14:19:00,
2013-06-09 09:24:00,70.5,60.6,-100.00,SE,136,0.0,9.0,71,0.00,,,0.00,meteohub,2013-06-09 14:24:00,
2013-06-09 09:29:00,70.5,60.6,-100.00,South,187,0.0,7.0,71,0.00,,,0.00,meteohub,2013-06-09 14:29:00,
2013-06-09 09:34:00,70.5,60.6,-100.00,South,175,0.0,7.0,71,0.00,,,0.00,meteohub,2013-06-09 14:34:00,
2013-06-09 09:39:00,70.3,60.4,-100.00,SSW,207,0.0,4.0,71,0.00,,,0.00,meteohub,2013-06-09 14:39:00,
2013-06-09 09:44:00,70.5,60.6,-100.00,South,188,0.0,9.0,71,0.00,,,0.00,meteohub,2013-06-09 14:44:00,
2013-06-09 09:49:00,70.5,60.6,-100.00,South,179,0.0,9.0,71,0.00,,,0.00,meteohub,2013-06-09 14:49:00,
2013-06-09 09:54:00,70.9,61.0,-100.00,SSW,200,0.0,9.0,71,0.00,,,0.00,meteohub,2013-06-09 14:54:00,
2013-06-09 09:59:00,71.2,61.0,-100.00,SW,217,0.0,7.0,70,0.00,,,0.00,meteohub,2013-06-09 14:59:00,
2013-06-09 10:04:00,71.2,61.0,-100.00,SSW,198,3.0,7.0,70,0.00,,,0.00,meteohub,2013-06-09 15:04:00,
2013-06-09 10:09:00,71.8,61.5,-100.00,SSW,209,6.0,12.0,70,0.00,,,0.00,meteohub,2013-06-09 15:09:00,
2013-06-09 10:14:00,71.8,61.5,-100.00,SSW,209,0.0,12.0,70,0.00,,,0.00,meteohub,2013-06-09 15:14:00,
2013-06-09 10:19:00,71.6,61.7,-100.00,SW,219,0.0,12.0,71,0.00,,,0.00,meteohub,2013-06-09 15:19:00,
2013-06-09 10:24:00,71.8,61.5,-100.00,South,189,6.0,11.0,70,0.00,,,0.00,meteohub,2013-06-09 15:24:00,
2013-06-09 10:29:00,72.0,61.7,-100.00,South,191,2.0,12.0,70,0.00,,,0.00,meteohub,2013-06-09 15:29:00,
2013-06-09 10:32:00,72.0,61.7,-100.00,SSW,206,6.0,12.0,70,0.00,,,0.00,meteohub,2013-06-09 15:32:00,
2013-06-09 10:37:00,72.1,61.9,-100.00,WSW,238,8.0,12.0,70,0.00,,,0.00,meteohub,2013-06-09 15:37:00,
2013-06-09 10:42:00,72.3,62.1,-100.00,SSW,198,8.0,10.0,70,0.00,,,0.00,meteohub,2013-06-09 15:42:00,
2013-06-09 10:47:00,72.5,62.2,-100.00,SSW,194,1.0,10.0,70,0.00,,,0.00,meteohub,2013-06-09 15:47:00,
2013-06-09 10:52:00,72.9,62.1,-100.00,SW,222,6.0,10.0,69,0.00,,,0.00,meteohub,2013-06-09 15:52:00,
2013-06-09 10:57:00,72.3,62.1,-100.00,SSW,206,4.0,14.0,70,0.00,,,0.00,meteohub,2013-06-09 15:57:00,
2013-06-09 11:02:00,72.1,61.9,-100.00,South,186,5.0,14.0,70,0.00,,,0.00,meteohub,2013-06-09 16:02:00,
2013-06-09 11:07:00,72.0,62.4,-100.00,SSW,193,0.0,14.0,72,0.00,,,0.00,meteohub,2013-06-09 16:07:00,
2013-06-09 11:12:00,71.4,61.9,-100.00,SSW,196,6.0,12.0,72,0.00,,,0.00,meteohub,2013-06-09 16:12:00,
2013-06-09 11:17:00,71.2,62.1,-100.00,SSW,198,7.0,11.0,73,0.00,,,0.00,meteohub,2013-06-09 16:17:00,
2013-06-09 11:22:00,70.9,61.9,-100.00,SSW,204,10.0,13.0,73,0.00,,,0.00,meteohub,2013-06-09 16:22:00,
2013-06-09 11:27:00,70.5,62.2,-100.00,SSW,207,2.0,13.0,75,0.00,,,0.00,meteohub,2013-06-09 16:27:00,
2013-06-09 11:32:00,70.0,62.4,-100.00,SSW,203,1.0,13.0,77,0.00,,,0.00,meteohub,2013-06-09 16:32:00,
2013-06-09 11:37:00,69.4,62.2,-100.00,SSW,196,0.0,12.0,78,0.00,,,0.00,meteohub,2013-06-09 16:37:00,
2013-06-09 11:42:00,69.1,62.2,-100.00,South,190,0.0,11.0,79,0.00,,,0.00,meteohub,2013-06-09 16:42:00,
2013-06-09 11:47:00,68.9,62.4,-100.00,SSW,202,5.0,11.0,80,0.00,,,0.00,meteohub,2013-06-09 16:47:00,
2013-06-09 11:52:00,68.7,62.6,-100.00,SSW,205,0.0,11.0,81,0.00,,,0.00,meteohub,2013-06-09 16:52:00,
2013-06-09 11:57:00,68.4,62.6,-100.00,South,183,0.0,11.0,82,0.00,,,0.00,meteohub,2013-06-09 16:57:00,
2013-06-09 12:02:00,67.6,62.6,-100.00,South,175,0.0,11.0,84,0.01,,,0.01,meteohub,2013-06-09 17:02:00,
2013-06-09 12:07:00,66.9,62.6,-100.00,SSW,210,0.0,7.0,86,0.02,,,0.02,meteohub,2013-06-09 17:07:00,
2013-06-09 12:12:00,66.6,62.6,-100.00,South,188,0.0,10.0,87,0.04,,,0.04,meteohub,2013-06-09 17:12:00,
2013-06-09 12:17:00,66.2,62.6,-100.00,South,175,1.0,10.0,88,0.05,,,0.05,meteohub,2013-06-09 17:17:00,
2013-06-09 12:22:00,65.8,62.2,-100.00,South,179,3.0,10.0,88,0.06,,,0.06,meteohub,2013-06-09 17:22:00,
2013-06-09 12:27:00,65.7,62.2,-100.00,South,179,0.0,9.0,89,0.07,,,0.07,meteohub,2013-06-09 17:27:00,
2013-06-09 12:32:00,65.7,62.2,-100.00,South,178,0.0,9.0,89,0.07,,,0.07,meteohub,2013-06-09 17:32:00,
2013-06-09 12:37:00,65.8,62.8,-100.00,South,180,0.0,6.0,90,0.07,,,0.07,meteohub,2013-06-09 17:37:00,
2013-06-09 12:42:00,65.8,62.8,-100.00,South,178,0.0,4.0,90,0.08,,,0.08,meteohub,2013-06-09 17:42:00,
2013-06-09 12:47:00,66.0,63.0,-100.00,South,178,0.0,4.0,90,0.08,,,0.08,meteohub,2013-06-09 17:47:00,
2013-06-09 12:52:00,66.0,63.0,-100.00,South,178,0.0,4.0,90,0.08,,,0.08,meteohub,2013-06-09 17:52:00,
2013-06-09 12:57:00,66.0,63.3,-100.00,South,178,0.0,1.0,91,0.08,,,0.08,meteohub,2013-06-09 17:57:00,
2013-06-09 13:02:00,66.0,63.3,-100.00,South,178,0.0,1.0,91,0.08,,,0.09,meteohub,2013-06-09 18:02:00,
2013-06-09 13:07:00,66.0,63.3,-100.00,South,177,0.0,2.0,91,0.06,,,0.09,meteohub,2013-06-09 18:07:00,
2013-06-09 13:12:00,66.0,63.3,-100.00,SSE,164,1.0,5.0,91,0.05,,,0.09,meteohub,2013-06-09 18:12:00,
2013-06-09 13:17:00,66.0,63.3,-100.00,South,189,0.0,5.0,91,0.05,,,0.10,meteohub,2013-06-09 18:17:00,
2013-06-09 13:22:00,66.2,63.5,-100.00,South,188,2.0,5.0,91,0.03,,,0.10,meteohub,2013-06-09 18:22:00,
2013-06-09 13:27:00,66.0,63.3,-100.00,South,187,0.0,5.0,91,0.03,,,0.10,meteohub,2013-06-09 18:27:00,
2013-06-09 13:32:00,66.0,63.3,-100.00,South,172,0.0,7.0,91,0.03,,,0.10,meteohub,2013-06-09 18:32:00,
2013-06-09 13:37:00,66.0,63.3,-100.00,SSW,211,4.0,7.0,91,0.03,,,0.10,meteohub,2013-06-09 18:37:00,
2013-06-09 13:42:00,65.8,63.1,-100.00,SSW,203,3.0,7.0,91,0.02,,,0.10,meteohub,2013-06-09 18:42:00,
2013-06-09 13:47:00,65.8,63.1,-100.00,South,173,0.0,10.0,91,0.02,,,0.10,meteohub,2013-06-09 18:47:00,
2013-06-09 13:52:00,66.2,63.5,-100.00,South,173,1.0,10.0,91,0.02,,,0.10,meteohub,2013-06-09 18:52:00,
2013-06-09 13:57:00,66.9,64.6,-100.00,WSW,242,4.0,9.0,92,0.01,,,0.10,meteohub,2013-06-09 18:57:00,
2013-06-09 14:02:00,67.3,64.6,-100.00,SSW,209,0.0,11.0,91,0.01,,,0.10,meteohub,2013-06-09 19:02:00,
2013-06-09 14:07:00,67.3,64.2,-100.00,South,190,0.0,11.0,90,0.01,,,0.10,meteohub,2013-06-09 19:07:00,
2013-06-09 14:12:00,67.1,64.0,-100.00,SSW,213,2.0,11.0,90,0.01,,,0.10,meteohub,2013-06-09 19:12:00,
2013-06-09 14:17:00,67.3,63.7,-100.00,SE,130,0.0,9.0,88,0.00,,,0.10,meteohub,2013-06-09 19:17:00,
2013-06-09 14:22:00,67.6,64.2,-100.00,ESE,117,0.0,9.0,89,0.00,,,0.10,meteohub,2013-06-09 19:22:00,
2013-06-09 14:27:00,67.8,63.9,-100.00,SSE,150,0.0,7.0,87,0.00,,,0.10,meteohub,2013-06-09 19:27:00,
2013-06-09 14:32:00,68.4,64.6,-100.00,SSW,192,0.0,7.0,88,0.00,,,0.10,meteohub,2013-06-09 19:32:00,
2013-06-09 14:37:00,69.1,65.1,-100.00,SSE,162,0.0,4.0,87,0.00,,,0.10,meteohub,2013-06-09 19:37:00,
2013-06-09 14:42:00,69.4,64.8,-100.00,SSE,157,4.0,6.0,85,0.00,,,0.10,meteohub,2013-06-09 19:42:00,
2013-06-09 14:47:00,70.2,64.0,-100.00,SSW,206,6.0,6.0,81,0.00,,,0.10,meteohub,2013-06-09 19:47:00,
2013-06-09 14:52:00,69.8,63.3,-100.00,SSW,204,6.0,13.0,80,0.00,,,0.10,meteohub,2013-06-09 19:52:00,
2013-06-09 14:57:00,70.3,63.9,-100.00,SSE,154,9.0,16.0,80,0.00,,,0.10,meteohub,2013-06-09 19:57:00,
2013-06-09 15:02:00,70.2,63.3,-100.00,South,178,4.0,16.0,79,0.00,,,0.10,meteohub,2013-06-09 20:02:00,
2013-06-09 15:07:00,71.2,63.7,-100.00,East,99,5.0,14.0,77,0.00,,,0.10,meteohub,2013-06-09 20:07:00,
2013-06-09 15:12:00,72.1,64.6,-100.00,SE,140,0.0,14.0,77,0.00,,,0.10,meteohub,2013-06-09 20:12:00,
2013-06-09 15:17:00,72.3,63.5,-100.00,ESE,111,0.0,11.0,74,0.00,,,0.10,meteohub,2013-06-09 20:17:00,
2013-06-09 15:22:00,72.0,63.1,-100.00,South,176,0.0,11.0,74,0.00,,,0.10,meteohub,2013-06-09 20:22:00,
2013-06-09 15:27:00,71.8,64.2,-100.00,South,182,0.0,9.0,77,0.00,,,0.10,meteohub,2013-06-09 20:27:00,
2013-06-09 15:32:00,72.0,63.7,-100.00,SSW,203,0.0,5.0,75,0.00,,,0.10,meteohub,2013-06-09 20:32:00,
2013-06-09 15:37:00,71.4,62.8,-100.00,SSW,194,4.0,13.0,74,0.00,,,0.10,meteohub,2013-06-09 20:37:00,
2013-06-09 15:42:00,71.8,63.5,-100.00,ESE,117,0.0,13.0,75,0.00,,,0.10,meteohub,2013-06-09 20:42:00,
2013-06-09 15:47:00,72.3,63.1,-100.00,South,190,1.0,13.0,73,0.00,,,0.10,meteohub,2013-06-09 20:47:00,
2013-06-09 15:52:00,73.0,63.5,-100.00,SE,130,2.0,11.0,72,0.00,,,0.10,meteohub,2013-06-09 20:52:00,
2013-06-09 15:57:00,73.9,63.9,-100.00,SSW,202,3.0,10.0,71,0.00,,,0.10,meteohub,2013-06-09 20:57:00,
2013-06-09 16:02:00,73.9,63.5,-100.00,ESE,102,0.0,9.0,70,0.00,,,0.10,meteohub,2013-06-09 21:02:00,
2013-06-09 16:07:00,73.8,63.3,-100.00,SSW,206,0.0,9.0,70,0.00,,,0.10,meteohub,2013-06-09 21:07:00,
2013-06-09 16:12:00,73.8,63.3,-100.00,South,185,1.0,15.0,70,0.00,,,0.10,meteohub,2013-06-09 21:12:00,
2013-06-09 16:17:00,74.3,63.9,-100.00,SSW,206,0.0,15.0,70,0.00,,,0.10,meteohub,2013-06-09 21:17:00,
2013-06-09 16:22:00,74.8,63.5,-100.00,SW,215,3.0,15.0,68,0.00,,,0.10,meteohub,2013-06-09 21:22:00,
2013-06-09 16:27:00,75.4,64.0,-100.00,South,177,0.0,14.0,68,0.00,,,0.10,meteohub,2013-06-09 21:27:00,
2013-06-09 16:32:00,76.3,63.7,-100.00,SSW,213,7.0,14.0,65,0.00,,,0.10,meteohub,2013-06-09 21:32:00,
2013-06-09 16:37:00,75.7,64.0,-100.00,SW,214,8.0,14.0,67,0.00,,,0.10,meteohub,2013-06-09 21:37:00,
2013-06-09 16:42:00,75.9,63.7,-100.00,WSW,248,3.0,13.0,66,0.00,,,0.10,meteohub,2013-06-09 21:42:00,
2013-06-09 16:47:00,75.6,63.3,-100.00,SW,215,6.0,13.0,66,0.00,,,0.10,meteohub,2013-06-09 21:47:00,
2013-06-09 16:52:00,75.0,63.3,-100.00,SSW,209,5.0,12.0,67,0.00,,,0.10,meteohub,2013-06-09 21:52:00,
2013-06-09 16:57:00,75.2,63.5,-100.00,South,169,0.0,12.0,67,0.00,,,0.10,meteohub,2013-06-09 21:57:00,
2013-06-09 17:02:00,75.6,63.3,-100.00,SW,219,6.0,12.0,66,0.00,,,0.10,meteohub,2013-06-09 22:02:00,
2013-06-09 17:07:00,75.4,63.1,-100.00,ESE,109,0.0,13.0,66,0.00,,,0.10,meteohub,2013-06-09 22:07:00,
2013-06-09 17:12:00,75.7,63.5,-100.00,SW,229,5.0,13.0,66,0.00,,,0.10,meteohub,2013-06-09 22:12:00,
2013-06-09 17:17:00,75.6,63.9,-100.00,SSW,208,13.0,14.0,67,0.00,,,0.10,meteohub,2013-06-09 22:17:00,
2013-06-09 17:22:00,75.2,63.9,-100.00,SSW,206,3.0,14.0,68,0.00,,,0.10,meteohub,2013-06-09 22:22:00,
2013-06-09 17:27:00,75.6,64.2,-100.00,SSE,158,0.0,14.0,68,0.00,,,0.10,meteohub,2013-06-09 22:27:00,
2013-06-09 17:32:00,75.7,64.0,-100.00,South,183,0.0,13.0,67,0.00,,,0.10,meteohub,2013-06-09 22:32:00,
2013-06-09 17:37:00,75.7,63.5,-100.00,SE,129,0.0,11.0,66,0.00,,,0.10,meteohub,2013-06-09 22:37:00,
2013-06-09 17:42:00,75.6,64.2,-100.00,SSW,211,0.0,11.0,68,0.00,,,0.10,meteohub,2013-06-09 22:42:00,
2013-06-09 17:47:00,75.2,63.5,-100.00,South,183,0.0,6.0,67,0.00,,,0.10,meteohub,2013-06-09 22:47:00,
2013-06-09 17:52:00,74.8,63.5,-100.00,SSW,201,0.0,7.0,68,0.00,,,0.10,meteohub,2013-06-09 22:52:00,
2013-06-09 17:57:00,73.9,63.1,-100.00,SSW,195,0.0,11.0,69,0.00,,,0.10,meteohub,2013-06-09 22:57:00,
2013-06-09 18:02:00,73.8,63.0,-100.00,SSW,207,1.0,11.0,69,0.00,,,0.10,meteohub,2013-06-09 23:02:00,
2013-06-09 18:07:00,73.6,62.4,-100.00,SSW,204,0.0,11.0,68,0.00,,,0.10,meteohub,2013-06-09 23:07:00,
2013-06-09 18:12:00,73.4,62.2,-100.00,SSW,193,0.0,8.0,68,0.00,,,0.10,meteohub,2013-06-09 23:12:00,
2013-06-09 18:17:00,73.4,62.6,-100.00,SSW,207,0.0,8.0,69,0.00,,,0.10,meteohub,2013-06-09 23:17:00,
2013-06-09 18:22:00,73.2,62.4,-100.00,West,261,0.0,7.0,69,0.00,,,0.10,meteohub,2013-06-09 23:22:00,
2013-06-09 18:27:00,73.2,62.1,-100.00,WSW,244,0.0,11.0,68,0.00,,,0.10,meteohub,2013-06-09 23:27:00,
2013-06-09 18:32:00,72.7,58.8,-100.00,WNW,290,6.0,14.0,62,0.00,,,0.10,meteohub,2013-06-09 23:32:00,
2013-06-09 18:37:00,70.9,57.7,-100.00,West,267,10.0,16.0,63,0.00,,,0.10,meteohub,2013-06-09 23:37:00,
2013-06-09 18:42:00,69.4,58.5,-100.00,West,266,2.0,18.0,68,0.00,,,0.10,meteohub,2013-06-09 23:42:00,
2013-06-09 18:47:00,68.0,59.0,-100.00,West,267,0.0,18.0,73,0.01,,,0.11,meteohub,2013-06-09 23:47:00,
2013-06-09 18:52:00,66.9,58.8,-100.00,SW,236,1.0,18.0,75,0.01,,,0.11,meteohub,2013-06-09 23:52:00,
2013-06-09 18:57:00,66.4,59.0,-100.00,SW,224,0.0,5.0,77,0.01,,,0.11,meteohub,2013-06-09 23:57:00,
2013-06-09 19:02:00,65.8,58.8,-100.00,SW,220,0.0,4.0,78,0.01,,,0.11,meteohub,2013-06-10 00:02:00,
2013-06-09 19:07:00,65.3,59.4,-100.00,SW,219,0.0,4.0,81,0.02,,,0.01,meteohub,2013-06-10 00:07:00,
2013-06-09 19:12:00,64.8,59.5,-100.00,SW,221,0.0,4.0,83,0.03,,,0.02,meteohub,2013-06-10 00:12:00,
2013-06-09 19:17:00,64.2,59.4,-100.00,SW,221,0.0,2.0,84,0.05,,,0.04,meteohub,2013-06-10 00:17:00,
2013-06-09 19:22:00,63.9,59.5,-100.00,SW,221,0.0,0.0,86,0.07,,,0.06,meteohub,2013-06-10 00:22:00,
2013-06-09 19:27:00,63.7,59.7,-100.00,SW,221,0.0,0.0,87,0.10,,,0.09,meteohub,2013-06-10 00:27:00,
2013-06-09 19:32:00,63.3,59.7,-100.00,SW,221,0.0,0.0,88,0.12,,,0.11,meteohub,2013-06-10 00:32:00,
2013-06-09 19:37:00,63.1,59.9,-100.00,South,173,0.0,0.0,89,0.13,,,0.12,meteohub,2013-06-10 00:37:00,
2013-06-09 19:42:00,63.1,59.9,-100.00,ESE,105,1.0,2.0,89,0.13,,,0.12,meteohub,2013-06-10 00:42:00,
2013-06-09 19:47:00,62.8,59.5,-100.00,East,93,0.0,5.0,89,0.12,,,0.12,meteohub,2013-06-10 00:47:00,
2013-06-09 19:52:00,62.6,59.5,-100.00,East,93,1.0,5.0,90,0.12,,,0.12,meteohub,2013-06-10 00:52:00,
2013-06-09 19:57:00,62.4,59.4,-100.00,East,95,0.0,5.0,90,0.12,,,0.12,meteohub,2013-06-10 00:57:00,
2013-06-09 20:02:00,62.6,59.9,-100.00,East,95,0.0,3.0,91,0.12,,,0.12,meteohub,2013-06-10 01:02:00,
2013-06-09 20:07:00,62.6,59.5,-100.00,East,95,0.0,3.0,90,0.11,,,0.12,meteohub,2013-06-10 01:07:00,
2013-06-09 20:12:00,62.6,59.9,-100.00,East,95,0.0,0.0,91,0.10,,,0.12,meteohub,2013-06-10 01:12:00,
2013-06-09 20:17:00,62.6,59.9,-100.00,East,95,0.0,0.0,91,0.07,,,0.12,meteohub,2013-06-10 01:17:00,
2013-06-09 20:22:00,62.8,60.1,-100.00,East,95,0.0,0.0,91,0.04,,,0.12,meteohub,2013-06-10 01:22:00,
2013-06-09 20:27:00,63.0,60.6,-100.00,East,95,0.0,1.0,92,0.02,,,0.12,meteohub,2013-06-10 01:27:00,
2013-06-09 20:32:00,63.0,60.6,-100.00,East,95,0.0,1.0,92,0.01,,,0.12,meteohub,2013-06-10 01:32:00,
2013-06-09 20:37:00,62.8,60.4,-100.00,East,95,0.0,1.0,92,0.00,,,0.12,meteohub,2013-06-10 01:37:00,
2013-06-09 20:42:00,62.8,60.4,-100.00,East,95,0.0,0.0,92,0.00,,,0.12,meteohub,2013-06-10 01:42:00,
2013-06-09 20:47:00,62.8,60.4,-100.00,East,95,0.0,0.0,92,0.00,,,0.12,meteohub,2013-06-10 01:47:00,
2013-06-09 20:52:00,63.0,60.6,-100.00,East,95,0.0,0.0,92,0.00,,,0.12,meteohub,2013-06-10 01:52:00,
2013-06-09 20:57:00,63.0,60.6,-100.00,East,95,0.0,0.0,92,0.00,,,0.12,meteohub,2013-06-10 01:57:00,
2013-06-09 21:02:00,63.0,60.6,-100.00,East,95,0.0,0.0,92,0.00,,,0.12,meteohub,2013-06-10 02:02:00,
2013-06-09 21:07:00,63.0,60.6,-100.00,East,95,0.0,0.0,92,0.00,,,0.12,meteohub,2013-06-10 02:07:00,
2013-06-09 21:12:00,62.8,60.4,-100.00,East,95,0.0,0.0,92,0.01,,,0.13,meteohub,2013-06-10 02:12:00,
2013-06-09 21:17:00,62.8,60.4,-100.00,East,95,0.0,0.0,92,0.01,,,0.13,meteohub,2013-06-10 02:17:00,
2013-06-09 21:22:00,62.8,60.4,-100.00,East,95,0.0,0.0,92,0.01,,,0.13,meteohub,2013-06-10 02:22:00,
2013-06-09 21:27:00,62.6,60.3,-100.00,East,95,0.0,3.0,92,0.02,,,0.14,meteohub,2013-06-10 02:27:00,
2013-06-09 21:32:00,62.6,60.3,-100.00,East,95,0.0,3.0,92,0.02,,,0.14,meteohub,2013-06-10 02:32:00,
2013-06-09 21:37:00,62.6,60.3,-100.00,East,95,0.0,3.0,92,0.02,,,0.14,meteohub,2013-06-10 02:37:00,
2013-06-09 21:42:00,62.8,60.8,-100.00,East,95,1.0,0.0,93,0.03,,,0.15,meteohub,2013-06-10 02:42:00,
2013-06-09 21:47:00,62.4,60.4,-100.00,East,95,0.0,3.0,93,0.10,,,0.22,meteohub,2013-06-10 02:47:00,
2013-06-09 21:52:00,62.4,60.4,-100.00,East,101,0.0,3.0,93,0.11,,,0.23,meteohub,2013-06-10 02:52:00,
2013-06-09 21:57:00,62.4,60.4,-100.00,East,101,0.0,3.0,93,0.13,,,0.25,meteohub,2013-06-10 02:57:00,
2013-06-09 22:02:00,62.2,60.3,-100.00,East,101,0.0,3.0,93,0.22,,,0.34,meteohub,2013-06-10 03:02:00,
2013-06-09 22:07:00,62.2,60.3,-100.00,East,101,0.0,3.0,93,0.22,,,0.34,meteohub,2013-06-10 03:07:00,
2013-06-09 22:12:00,62.1,60.1,-100.00,East,101,0.0,0.0,93,0.22,,,0.35,meteohub,2013-06-10 03:12:00,
2013-06-09 22:17:00,62.1,60.1,-100.00,East,101,0.0,0.0,93,0.22,,,0.35,meteohub,2013-06-10 03:17:00,
2013-06-09 22:22:00,62.1,60.3,-100.00,East,101,0.0,0.0,94,0.22,,,0.35,meteohub,2013-06-10 03:22:00,
2013-06-09 22:27:00,62.1,60.3,-100.00,East,101,0.0,0.0,94,0.21,,,0.35,meteohub,2013-06-10 03:27:00,
2013-06-09 22:32:00,61.9,60.1,-100.00,East,101,0.0,0.0,94,0.21,,,0.35,meteohub,2013-06-10 03:32:00,
2013-06-09 22:38:00,61.9,59.9,-100.00,East,101,0.0,0.0,93,0.21,,,0.35,meteohub,2013-06-10 03:38:00,
2013-06-09 22:43:00,61.9,59.9,-100.00,East,101,0.0,0.0,93,0.18,,,0.35,meteohub,2013-06-10 03:43:00,
2013-06-09 22:48:00,61.7,59.9,-100.00,East,101,0.0,1.0,94,0.13,,,0.35,meteohub,2013-06-10 03:48:00,
2013-06-09 22:53:00,61.7,59.9,-100.00,East,101,0.0,1.0,94,0.11,,,0.35,meteohub,2013-06-10 03:53:00,
2013-06-09 22:58:00,61.7,59.9,-100.00,East,101,0.0,1.0,94,0.07,,,0.35,meteohub,2013-06-10 03:58:00,
2013-06-09 23:01:00,61.7,59.9,-100.00,East,101,0.0,0.0,94,0.01,,,0.35,meteohub,2013-06-10 04:01:00,
2013-06-09 23:06:00,61.7,59.9,-100.00,East,101,0.0,0.0,94,0.00,,,0.35,meteohub,2013-06-10 04:06:00,
2013-06-09 23:11:00,61.7,59.9,-100.00,East,101,0.0,0.0,94,0.00,,,0.35,meteohub,2013-06-10 04:11:00,
2013-06-09 23:16:00,61.7,59.9,-100.00,East,101,0.0,0.0,94,0.00,,,0.35,meteohub,2013-06-10 04:16:00,
2013-06-09 23:21:00,61.7,59.9,-100.00,East,101,0.0,0.0,94,0.00,,,0.35,meteohub,2013-06-10 04:21:00,
2013-06-09 23:26:00,61.9,60.1,-100.00,East,101,0.0,0.0,94,0.00,,,0.35,meteohub,2013-06-10 04:26:00,
2013-06-09 23:31:00,61.9,60.1,-100.00,East,101,0.0,0.0,94,0.00,,,0.35,meteohub,2013-06-10 04:31:00,
2013-06-09 23:36:00,61.9,60.1,-100.00,East,101,0.0,0.0,94,0.00,,,0.35,meteohub,2013-06-10 04:36:00,
2013-06-09 23:41:00,61.9,60.1,-100.00,East,101,0.0,0.0,94,0.00,,,0.35,meteohub,2013-06-10 04:41:00,
2013-06-09 23:46:00,61.9,60.1,-100.00,East,101,0.0,0.0,94,0.00,,,0.35,meteohub,2013-06-10 04:46:00,
2013-06-09 23:51:00,61.9,60.1,-100.00,East,101,0.0,0.0,94,0.00,,,0.35,meteohub,2013-06-10 04:51:00,
2013-06-09 23:57:00,61.9,60.1,-100.00,East,101,0.0,0.0,94,0.00,,,0.35,meteohub,2013-06-10 04:57:00,